Vorticity
6 11 11 4 17 4 5 3 7 5 5 6 6 2 5 7 11 2 6 5 6 6 6 6 5 6 6 7 4 9 4 5 4 4 2 0 6 6 5 4 5 4 6 4 4 6 5 6 8
4 8 16 21 1 7 17 2 7 5 5 6 8 6 3 5 1 7 6 8 7 7 7 6 7 6 6 6 4 6 10 6 6 2 1 1 6 6 4 5 7 4 5 4 1 3 3 4 7
3 6 8 -21 5 3 7 10 7 4 9 8 7 7 6 7 1 7 7 7 7 7 6 8 7 7 6 -2 7 7 8 -2 -1 5 -1 4 2 5 5 4 4 4 7 7 6 3 2 3 4
10 7 11 10 6 11 10 8 9 8 7 7 7 6 9 6 3 3 10 7 4 5 8 8 7 8 6 3 13 3 5 4 5 1 5 3 3 5 6 4 4 4 4 4 8 6 5 5 5
6 12 15 14 9 9 9 8 6 7 9 9 8 7 8 9 7 6 7 5 4 4 7 8 7 9 7 5 7 5 4 8 8 9 6 5 2 5 6 5 4 4 4 4 5 5 6 7 6
12 -7 5 7 11 9 6 6 9 9 9 7 6 8 7 6 7 7 8 7 5 5 6 8 10 8 9 5 12 6 5 4 10 10 1 1 1 5 5 6 4 4 4 5 4 4 4 3 6
-4 10 5 7 8 6 7 8 9 9 7 7 9 10 10 8 8 8 8 8 7 6 5 5 7 7 8 11 21 18 6 1 8 11 10 4 6 9 5 8 3 4 4 3 5 5 5 4 4
4 6 1 8 6 9 11 10 11 9 7 6 8 9 8 9 10 10 10 8 7 7 8 7 8 4 8 4 9 29 7 6 8 5 3 2 1 83 1 6 5 4 4 4 6 5 4 6 5
7 7 3 2 6 7 10 8 8 7 8 8 7 6 7 9 9 8 9 7 8 8 7 6 5 8 5 2 8 -6 12 7 7 1 5 3 -7 -3 4 5 8 3 3 3 2 9 5 4 8
3 10 4 10 6 6 6 6 3 2 3 7 6 7 6 9 8 7 2 6 4 3 9 13 7 4 5 8 -4 -14 48 11 4 5 7 4 7 5 4 5 7 6 4 4 3 3 6 7 7
14 4 4 6 5 7 6 5 6 5 6 9 6 7 6 7 6 4 5 8 4 6 19 13 14 19 12 4 6 9 -0 16 2 -2 6 -4 5 9 3 3 6 6 4 5 4 5 5 7 7
16 11 6 5 7 4 5 7 7 7 5 7 10 6 5 8 8 7 8 7 4 5 8 21 12 19 19 16 14 -6 22 13 -4 2 3 -10 3 6 2 4 4 5 2 2 6 5 4 7 6
5 12 17 11 6 4 3 4 5 5 4 3 6 5 3 4 7 5 7 7 5 5 7 18 19 20 9 12 21 8 47 32 43 14 -2 20 -1 6 5 1 2 5 7 4 7 7 6 6 7
2 9 9 9 12 18 12 4 3 5 6 4 4 5 3 3 3 7 5 8 8 3 5 8 21 16 19 11 15 9 8 28 14 5 5 -2 9 4 4 4 2 3 5 7 5 7 9 7 5
4 5 8 8 8 11 10 24 14 2 3 5 6 4 4 3 4 5 8 7 9 2 3 2 13 16 17 17 9 1 1 1 10 23 16 8 12 9 5 4 9 4 5 6 4 7 9 6 5
3 -2 6 5 6 8 8 9 14 21 9 4 3 2 4 5 8 9 10 4 10 4 4 13 4 10 19 8 15 8 13 8 -5 27 27 2 -3 1 9 7 -1 5 5 5 5 6 6 6 5
7 9 9 6 6 7 10 11 15 9 24 18 10 11 14 12 6 6 9 10 7 6 8 3 4 8 14 16 16 7 9 1 12 15 14 2 10 9 19 16 2 7 1 5 7 8 5 6 5
8 -0 6 -2 9 12 4 8 11 14 11 11 12 7 7 7 10 10 9 10 8 7 4 7 15 -1 13 22 20 16 10 1 -1 34 4 10 1 5 6 11 9 -3 8 7 6 6 4 13 1
-13 4 4 -1 6 14 11 8 5 6 7 9 10 10 11 10 9 7 9 13 9 8 8 12 10 17 1 -12 30 8 3 2 37 22 -0 2 3 9 18 18 13 16 5 8 5 1 2 8 5
7 6 5 1 10 13 17 -5 7 4 6 8 9 7 8 11 14 10 11 12 13 11 7 15 -0 8 39 14 -1 16 31 10 13 14 9 7 5 4 6 2 5 3 3 12 -19 24 4 7 -2
12 2 -1 3 2 18 10 10 9 7 2 4 7 6 10 6 11 13 11 8 12 10 8 28 -7 23 8 14 15 2 20 9 4 5 7 7 6 3 2 7 5 4 4 6 5 6 8 14 2
-2 14 8 0 19 26 13 2 12 8 6 7 11 16 7 3 11 9 12 13 14 17 8 5 3 6 1 3 5 3 57 9 4 8 7 8 9 9 8 6 6 7 6 6 5 6 7 7 7
43 11 2 7 6 -7 5 -2 -30 10 9 7 17 7 9 9 10 11 11 13 10 15 14 7 9 10 8 6 6 7 3 2 4 6 5 5 5 5 4 4 6 6 6 6 7 8 6 4 7
15 8 3 16 -0 7 6 16 -4 7 10 5 13 9 11 -2 10 12 11 11 10 11 11 11 11 11 10 9 9 10 9 9 7 5 6 6 6 6 6 7 6 6 7 8 7 6 9 13 9
9 11 9 12 8 52 7 33 13 4 9 17 -4 11 12 5 5 8 10 9 9 8 9 10 8 9 9 9 9 10 10 9 7 9 7 6 8 8 16 9 9 10 8 9 3 10 3 6 9
16 3 -10 5 6 -21 8 11 -1 8 9 8 6 9 3 15 -0 7 8 8 8 7 7 7 7 6 6 6 6 6 7 7 8 8 6 3 20 12 -0 4 12 12 14 6 8 10 7 11 7
3 1 39 7 -0 8 4 -0 6 8 10 8 10 3 7 14 7 6 7 8 7 7 7 6 6 7 9 9 10 10 8 6 5 6 8 9 8 2 4 7 8 12 8 8 6 9 11 12 17
6 19 4 20 12 12 8 12 -8 10 10 10 5 10 4 8 9 7 7 8 9 8 8 8 9 9 10 9 9 10 11 11 10 7 8 7 8 10 12 4 8 10 8 7 9 13 13 8 11
8 19 16 9 -3 -8 10 14 11 8 10 12 10 13 4 8 8 7 6 6 6 6 6 7 8 9 9 9 9 9 8 8 8 7 8 6 7 8 7 7 10 9 7 8 11 9 8 9 11
0 6 0 0 12 17 51 6 10 10 12 9 11 5 7 6 10 7 5 6 5 5 6 6 6 5 5 4 5 7 9 8 8 9 9 9 9 12 11 12 9 5 7 10 11 10 8 9 8
Height
5883 5883 5883 5884 5889 5887 5885 5887 5885 5886 5885 5886 5886 5886 5886 5886 5887 5889 5888 5888 5890 5890 5891 5892 5894 5896 5896 5897 5899 5901 5903 5905 5906 5907 5908 5909 5910 5912 5912 5912 5913 5913 5914 5914 5914 5915 5915 5915 5915
5886 5885 5885 5884 5888 5889 5886 5889 5886 5886 5885 5886 5887 5887 5888 5888 5888 5888 5890 5890 5890 5891 5892 5894 5895 5897 5897 5898 5900 5902 5905 5907 5908 5909 5910 5911 5912 5913 5913 5915 5915 5915 5916 5917 5916 5917 5917 5917 5917
5887 5887 5889 5887 5891 5890 5887 5887 5887 5887 5887 5888 5888 5888 5889 5890 5890 5890 5891 5891 5892 5892 5893 5895 5896 5898 5898 5899 5900 5903 5905 5907 5910 5911 5912 5913 5914 5915 5916 5916 5917 5918 5919 5919 5919 5919 5919 5920 5920
5889 5889 5892 5894 5889 5889 5889 5889 5890 5890 5889 5889 5890 5891 5891 5890 5891 5891 5892 5892 5892 5893 5894 5895 5897 5898 5899 5899 5900 5903 5906 5908 5910 5912 5913 5915 5916 5916 5917 5918 5919 5920 5920 5920 5921 5921 5921 5922 5922
5891 5890 5897 5894 5891 5891 5892 5892 5892 5892 5892 5891 5891 5892 5892 5893 5893 5892 5893 5894 5893 5893 5894 5896 5898 5899 5899 5900 5902 5903 5906 5908 5911 5913 5914 5916 5917 5918 5919 5920 5921 5921 5922 5922 5923 5923 5923 5924 5924
5893 5898 5902 5899 5896 5895 5896 5895 5895 5894 5894 5894 5893 5894 5894 5894 5894 5894 5895 5895 5895 5895 5896 5896 5898 5899 5899 5901 5900 5902 5905 5907 5910 5913 5916 5917 5919 5921 5922 5923 5923 5924 5924 5924 5925 5925 5924 5925 5926
5896 5905 5903 5900 5899 5899 5898 5898 5897 5897 5896 5897 5897 5898 5897 5896 5896 5895 5895 5895 5896 5896 5896 5897 5898 5898 5898 5899 5895 5900 5905 5908 5909 5913 5916 5918 5921 5922 5924 5925 5925 5926 5926 5926 5927 5927 5927 5927 5928
5905 5907 5906 5905 5901 5902 5902 5901 5900 5899 5899 5899 5899 5899 5899 5898 5897 5897 5897 5897 5896 5897 5897 5898 5899 5899 5898 5898 5897 5899 5903 5908 5910 5913 5916 5919 5921 5921 5926 5926 5927 5927 5928 5929 5929 5930 5929 5929 5930
5906 5912 5909 5909 5904 5905 5905 5904 5902 5902 5901 5901 5901 5900 5899 5899 5899 5899 5899 5898 5898 5898 5898 5898 5898 5897 5897 5899 5898 5899 5905 5908 5911 5914 5916 5920 5921 5923 5925 5927 5927 5929 5930 5931 5931 5931 5931 5931 5931
5908 5913 5908 5906 5906 5907 5906 5906 5905 5904 5903 5903 5902 5901 5901 5901 5901 5901 5900 5899 5899 5898 5897 5895 5895 5897 5897 5897 5899 5900 5901 5906 5911 5913 5916 5920 5920 5923 5926 5927 5928 5930 5930 5931 5932 5932 5932 5933 5933
5914 5909 5908 5908 5908 5909 5909 5909 5907 5906 5905 5904 5904 5903 5902 5902 5902 5902 5901 5901 5901 5900 5897 5895 5894 5894 5896 5898 5900 5903 5904 5906 5910 5913 5916 5918 5916 5922 5926 5927 5929 5930 5931 5932 5933 5933 5934 5935 5935
5912 5909 5910 5911 5911 5911 5910 5910 5908 5908 5907 5906 5906 5904 5903 5903 5903 5903 5902 5902 5901 5900 5899 5898 5896 5895 5895 5897 5897 5899 5901 5903 5908 5913 5916 5918 5916 5922 5925 5927 5929 5930 5932 5934 5936 5937 5938 5938 5938
5912 5911 5911 5912 5912 5912 5911 5911 5910 5909 5908 5907 5907 5906 5904 5904 5905 5904 5903 5903 5903 5902 5900 5897 5896 5896 5897 5898 5897 5898 5899 5901 5906 5912 5916 5914 5920 5923 5925 5928 5931 5934 5936 5938 5939 5940 5940 5940 5941
5911 5910 5910 5911 5912 5912 5912 5911 5911 5910 5909 5908 5908 5908 5907 5906 5905 5904 5904 5903 5903 5903 5902 5900 5898 5897 5898 5899 5899 5899 5902 5904 5907 5911 5915 5917 5921 5924 5929 5931 5933 5936 5937 5940 5941 5940 5940 5941 5942
5912 5911 5910 5911 5912 5913 5911 5910 5910 5911 5910 5909 5909 5909 5908 5907 5906 5906 5905 5904 5904 5904 5903 5903 5901 5899 5899 5899 5900 5901 5902 5903 5907 5910 5915 5918 5922 5925 5929 5932 5934 5937 5937 5939 5940 5940 5940 5941 5941
5915 5914 5912 5912 5913 5914 5913 5911 5910 5909 5909 5909 5909 5909 5909 5909 5908 5907 5908 5907 5905 5905 5906 5905 5905 5903 5901 5902 5903 5904 5904 5904 5907 5910 5914 5918 5922 5925 5930 5933 5935 5937 5938 5940 5941 5940 5940 5940 5940
5914 5912 5915 5914 5914 5914 5914 5912 5911 5910 5909 5909 5909 5910 5910 5910 5909 5909 5909 5909 5908 5908 5907 5907 5907 5905 5902 5902 5903 5905 5907 5907 5909 5911 5913 5918 5923 5927 5931 5933 5936 5937 5938 5939 5940 5940 5940 5940 5940
5914 5923 5917 5916 5916 5914 5915 5914 5912 5910 5910 5911 5911 5911 5911 5911 5911 5911 5910 5910 5910 5910 5909 5907 5906 5905 5905 5903 5903 5905 5908 5909 5910 5912 5916 5919 5924 5927 5930 5933 5935 5935 5937 5939 5940 5939 5939 5939 5938
5920 5921 5920 5917 5917 5915 5916 5915 5913 5912 5912 5913 5914 5913 5913 5913 5912 5912 5910 5910 5911 5911 5911 5909 5908 5908 5906 5906 5907 5908 5909 5910 5913 5913 5918 5921 5925 5927 5930 5932 5934 5936 5937 5939 5939 5938 5937 5937 5937
5922 5922 5920 5920 5918 5918 5917 5916 5916 5914 5914 5915 5915 5914 5914 5913 5913 5913 5913 5912 5913 5913 5912 5911 5912 5911 5908 5910 5911 5911 5911 5912 5914 5916 5917 5922 5927 5929 5932 5933 5935 5935 5936 5937 5937 5935 5935 5936 5935
5923 5923 5922 5921 5919 5917 5917 5919 5918 5917 5915 5915 5915 5916 5916 5917 5916 5916 5915 5915 5915 5915 5914 5914 5915 5914 5914 5915 5915 5914 5914 5913 5916 5921 5923 5925 5929 5931 5933 5932 5933 5934 5935 5934 5934 5934 5933 5933 5932
5918 5924 5922 5920 5915 5916 5914 5917 5918 5919 5917 5917 5917 5918 5919 5919 5918 5918 5918 5918 5917 5917 5917 5917 5918 5918 5918 5917 5917 5918 5916 5918 5919 5923 5926 5929 5930 5932 5932 5932 5932 5934 5934 5933 5931 5931 5930 5930 5929
5905 5920 5920 5919 5917 5915 5915 5913 5919 5920 5919 5919 5920 5926 5924 5921 5920 5921 5921 5920 5919 5920 5920 5921 5921 5921 5922 5922 5922 5921 5922 5923 5925 5926 5929 5929 5930 5931 5932 5933 5932 5932 5932 5931 5930 5929 5928 5926 5925
5917 5919 5918 5918 5915 5918 5926 5924 5925 5923 5923 5922 5923 5926 5927 5927 5925 5924 5924 5923 5922 5923 5924 5924 5924 5925 5925 5925 5926 5926 5926 5926 5928 5928 5929 5930 5930 5931 5931 5932 5931 5931 5930 5929 5928 5926 5925 5922 5920
5917 5920 5923 5922 5922 5911 5931 5916 5929 5926 5926 5926 5926 5926 5928 5928 5928 5928 5928 5927 5926 5926 5927 5927 5927 5928 5928 5928 5929 5930 5931 5931 5931 5930 5931 5932 5931 5932 5932 5932 5932 5930 5929 5927 5926 5924 5921 5918 5915
5917 5915 5907 5919 5928 5919 5928 5932 5929 5928 5928 5929 5929 5929 5931 5932 5932 5932 5932 5931 5931 5930 5930 5930 5931 5931 5931 5932 5932 5932 5932 5933 5933 5934 5934 5933 5933 5933 5933 5931 5930 5927 5925 5924 5922 5920 5917 5914 5911
5918 5906 5911 5917 5924 5929 5926 5928 5930 5930 5931 5931 5935 5933 5933 5936 5934 5934 5934 5934 5933 5934 5934 5934 5934 5934 5934 5935 5935 5936 5936 5935 5935 5935 5934 5934 5933 5933 5930 5929 5928 5925 5922 5921 5918 5916 5913 5909 5906
5915 5918 5921 5921 5925 5923 5926 5930 5929 5932 5933 5934 5935 5935 5935 5936 5936 5935 5935 5936 5937 5937 5937 5938 5938 5938 5937 5937 5938 5938 5937 5937 5937 5936 5935 5933 5932 5930 5929 5927 5925 5923 5921 5918 5914 5911 5909 5905 5901
5915 5916 5918 5918 5927 5922 5929 5933 5930 5932 5934 5935 5936 5936 5937 5938 5939 5938 5938 5938 5939 5939 5940 5940 5940 5940 5940 5940 5939 5939 5938 5937 5935 5934 5933 5932 5931 5928 5927 5925 5922 5920 5918 5914 5911 5907 5904 5902 5899
5911 5917 5919 5921 5928 5920 5924 5928 5931 5932 5934 5936 5937 5938 5939 5939 5941 5940 5940 5940 5940 5941 5941 5941 5941 5941 5941 5941 5940 5939 5938 5937 5936 5934 5933 5931 5929 5927 5924 5922 5919 5917 5914 5911 5908 5905 5903 5899 5896